Lakehurst NAS, NJ

4:15 AM EDT on April 30, 2017 (GMT -0400)
Lakehurst Naes

Weather History for KNEL - September, 2012

Change the Weather History Date:

Friday, September 21, 2012

  Actual Average Record
Temperature  
Mean Temperature 62 °F -  
Max Temperature 51 °F 71 °F 89 °F (1998)
Min Temperature 51 °F 55 °F 46 °F (2006)
Degree Days  
Heating Degree Days 3    
Growing Degree Days 12 (Base 50)    
Moisture  
Dew Point 55 °F    
Average Humidity 80    
Maximum Humidity 100    
Minimum Humidity 46    
Precipitation  
Precipitation 0.00 in - - ()
Sea Level Pressure  
Sea Level Pressure 30.06 in    
Wind  
Wind Speed 2 mph (East)    
Max Wind Speed 9 mph    
Max Gust Speed 32 mph    
Visibility 10 miles    
Events      
Averages and records for this station are not official NWS values.
T = Trace of Precipitation, MM = Missing Value Source: NWS Daily Summary

Daily Weather History Graph

Daily Weather History Graph

Search for Another Location

Airport or City:

Trip Planner

Search our weather history database for the weather conditions in past years. The results will help you decide how hot, cold, wet, or windy it might be!

Date:

Astronomy

Sep. 21, 2012 Rise Set
Actual Time 6:44 AM EDT 6:55 PM EDT
Civil Twilight 6:17 AM EDT 7:22 PM EDT
Nautical Twilight 5:45 AM EDT 7:54 PM EDT
Astronomical Twilight 5:13 AM EDT 8:26 PM EDT
Moon 1:03 PM EDT (9/21) 10:53 PM EDT (9/21)
Length of Visible Light 13h 05m
Length of Day
12h 10m
Waxing Crescent, 37% of the Moon is Illuminated
Sep 21
Waxing Crescent
Sep 22
First Quarter
Sep 29
Full
Oct 8
Last Quarter
Oct 15
New

Hourly Weather History & Observations

Time (EDT) Temp. Dew Point Humidity Pressure Visibility Wind Dir Wind Speed Gust Speed Precip Events Conditions
12:00 AM 57.0 °F 55.0 °F 93% 30.10 in 10.0 mi Calm Calm - N/A   Mostly Cloudy
1:00 AM 59.0 °F 57.9 °F 96% 30.09 in 10.0 mi ENE 3.5 mph - N/A   Scattered Clouds
2:00 AM 55.9 °F 55.0 °F 97% 30.09 in 9.0 mi Calm Calm - N/A   Clear
4:00 AM 53.1 °F 52.0 °F 96% 30.08 in 10.0 mi Calm Calm - N/A   Clear
5:00 AM 52.0 °F 52.0 °F 100% 30.08 in 10.0 mi Calm Calm - N/A   Clear
6:00 AM 52.0 °F 51.1 °F 97% 30.08 in 10.0 mi Calm Calm - N/A   Clear
6:07 AM - - N/A% - - North - - N/A   Unknown
7:00 AM 51.1 °F 50.0 °F 96% 30.09 in 10.0 mi Calm Calm - N/A   Clear
8:00 AM 55.0 °F 54.0 °F 96% 30.09 in 10.0 mi Calm Calm - N/A   Clear
9:00 AM 64.9 °F 60.1 °F 84% 30.09 in 10.0 mi Calm Calm - N/A   Clear
10:00 AM 69.1 °F 57.0 °F 65% 30.09 in 10.0 mi ENE 8.1 mph - N/A   Scattered Clouds
11:00 AM 71.1 °F 55.9 °F 59% 30.09 in 10.0 mi East 3.5 mph - N/A   Partly Cloudy
12:00 PM 72.0 °F 55.9 °F 57% 30.07 in 10.0 mi East 8.1 mph - N/A   Partly Cloudy
1:00 PM 73.9 °F 55.9 °F 53% 30.06 in 10.0 mi ESE 8.1 mph 32.2 mph N/A   Partly Cloudy
2:00 PM 73.0 °F 55.0 °F 53% 30.05 in 10.0 mi Variable 5.8 mph - N/A   Clear
4:00 PM 73.0 °F 51.1 °F 46% 30.04 in 10.0 mi East 9.2 mph - N/A   Clear
5:00 PM 71.1 °F 55.0 °F 57% 30.02 in 10.0 mi East 8.1 mph - N/A   Clear
6:00 PM 68.0 °F 57.0 °F 68% 30.03 in 10.0 mi ESE 8.1 mph - N/A   Clear
7:00 PM 64.9 °F 57.0 °F 75% 30.04 in 10.0 mi ESE 4.6 mph - N/A   Clear
8:00 PM 61.0 °F 57.0 °F 87% 30.03 in 10.0 mi Calm Calm - N/A   Clear
9:00 PM 59.0 °F 55.9 °F 90% 30.03 in 10.0 mi ESE 3.5 mph - N/A   Clear
10:00 PM 55.9 °F 54.0 °F 93% 30.02 in 10.0 mi Calm Calm - N/A   Clear
11:00 PM 54.0 °F 53.1 °F 97% 30.02 in 10.0 mi Calm Calm - N/A   Clear